Theta_e
312 312 312 312 311 310 310 310 309 308 307 307 304 306 299 297 294 304 307 308 305 299 294 296 294 293 294 296 295 296 295 294 296 295 298 295 298 297 296 296 296 298 297 297 297 299 297 299 299 300 299 298 299 301 302 305 308 310 309 309 307 313 306 302 303 307 308 310 312 312 313 311 309 309 310 308 305 306 305 304 307 304 304 300 301 299 304
312 312 312 312 311 310 310 310 310 309 307 308 306 301 297 297 297 300 306 308 305 297 287 288 290 293 295 294 293 295 294 294 293 294 295 294 293 294 296 297 298 296 299 298 296 299 293 299 298 298 300 298 301 301 302 305 305 305 304 305 308 302 306 304 300 301 302 303 307 307 310 310 307 306 308 309 309 309 308 308 309 303 304 304 300 296 303
311 312 312 311 311 310 310 310 309 309 309 310 308 299 299 298 300 300 301 305 303 293 293 291 290 291 291 291 291 292 293 296 295 295 294 297 295 294 293 297 298 297 299 298 299 299 296 296 298 299 299 298 301 301 302 304 304 304 306 307 308 305 305 303 298 295 293 292 293 296 300 303 307 309 308 309 308 307 305 301 304 298 306 307 302 302 311
311 312 312 312 311 310 310 310 310 309 309 308 307 302 297 294 289 295 298 300 300 298 299 295 292 291 290 290 291 292 291 294 296 295 295 297 295 295 294 297 297 297 297 295 295 296 299 296 297 299 298 299 300 301 302 302 303 306 306 306 308 306 308 307 305 303 300 303 306 307 309 306 302 305 307 307 308 309 308 307 303 300 305 304 306 308 309
312 312 312 311 310 310 310 309 309 309 308 308 307 304 299 298 290 290 288 295 298 293 296 293 293 290 292 288 291 289 290 291 293 297 292 296 294 294 294 293 291 291 294 294 294 295 295 298 298 296 297 299 300 301 302 302 304 305 304 306 307 306 303 305 306 305 304 303 304 305 306 305 305 304 304 307 307 308 306 303 302 310 305 299 307 311 307
311 312 312 312 311 310 309 309 309 308 308 307 308 298 298 290 293 295 297 289 287 289 291 294 292 293 293 291 291 290 289 289 287 293 295 294 295 290 293 292 293 292 290 293 292 294 294 295 294 297 297 298 300 299 301 301 303 303 302 306 304 303 301 303 302 301 301 302 303 304 305 305 306 306 305 305 306 307 305 306 307 309 304 302 309 311 309
312 312 312 312 311 310 309 309 309 308 306 307 308 297 298 298 296 296 299 291 292 292 292 294 293 292 293 291 291 289 289 288 290 290 291 292 291 292 285 288 291 291 293 291 290 293 291 291 296 295 296 296 297 297 299 301 303 301 301 303 305 302 301 301 301 299 300 302 302 303 303 304 304 305 305 306 306 306 306 306 307 307 308 309 310 312 310
311 311 312 312 311 311 310 309 309 308 306 308 304 301 295 293 292 291 297 295 293 294 293 292 292 290 292 289 291 290 290 288 291 292 291 288 289 294 287 288 290 291 292 292 289 292 293 291 289 296 295 296 298 297 298 298 301 301 298 300 304 299 299 299 299 299 300 301 303 302 302 302 302 304 305 306 306 307 307 307 307 308 307 308 308 310 309
311 311 311 311 311 311 310 309 308 307 307 307 302 300 302 300 301 299 292 289 292 293 293 291 291 289 292 290 290 291 290 289 292 292 294 290 287 290 288 290 291 292 292 291 291 294 294 295 295 297 297 293 298 295 298 300 296 298 298 300 300 300 298 300 299 297 298 300 300 301 301 302 301 302 303 304 304 303 305 305 307 306 306 308 307 306 307
311 311 312 311 311 311 311 310 310 307 305 305 303 297 305 304 305 302 297 288 294 290 293 293 290 288 291 290 290 290 291 293 293 289 293 294 293 293 292 293 292 291 291 289 291 295 295 296 297 299 300 301 300 300 300 299 297 296 298 300 297 299 297 297 298 295 297 300 300 299 300 300 298 300 303 305 306 307 307 308 309 309 309 306 304 306 312
311 311 311 311 311 311 312 311 310 307 308 304 302 300 301 301 298 298 298 288 291 292 291 290 289 290 292 292 291 293 293 293 293 287 288 294 294 295 295 294 292 290 290 294 298 298 298 300 300 301 300 299 299 299 299 299 299 298 297 297 298 298 297 296 299 294 297 298 298 299 297 292 295 308 309 308 305 306 305 305 307 310 310 308 311 312 315
311 311 311 311 311 311 312 312 310 308 307 308 307 302 304 304 303 300 293 286 288 293 290 289 290 291 291 292 291 291 291 292 292 295 291 293 295 296 295 294 294 289 298 301 300 300 301 302 301 301 300 299 298 298 298 297 298 301 300 297 297 296 297 296 299 295 294 298 298 294 290 293 307 310 313 312 310 310 309 309 309 310 312 311 311 312 313
312 312 312 312 311 312 312 312 311 309 308 309 308 302 305 306 302 298 295 290 287 290 288 290 293 293 293 292 291 292 294 295 295 296 295 294 294 295 295 294 293 295 301 299 300 299 296 293 295 296 296 297 297 297 296 296 296 298 299 300 297 295 295 297 296 297 297 295 295 288 292 302 304 309 312 315 315 314 311 308 311 312 312 312 314 315 314
312 312 312 312 312 311 312 312 311 310 309 308 306 305 306 307 300 297 295 290 288 292 293 292 293 292 292 292 292 292 294 294 295 296 293 296 294 294 296 298 299 301 301 301 299 298 293 294 290 292 291 294 294 292 295 296 296 295 296 298 299 297 297 296 292 298 291 294 294 294 303 300 303 305 309 311 311 311 308 302 306 312 321 319 318 321 318
312 312 312 312 312 312 312 312 312 311 309 308 308 306 305 307 305 300 300 296 288 292 293 287 291 292 292 292 292 291 290 292 292 293 296 297 295 296 297 299 302 301 300 298 296 297 292 292 288 287 289 288 285 288 295 292 297 297 297 297 299 300 295 297 292 293 296 293 292 294 293 291 298 307 313 317 317 317 317 313 311 320 323 322 323 321 324
312 312 312 312 311 312 312 312 312 312 310 308 307 305 306 307 307 305 300 295 291 285 292 295 295 294 292 292 293 291 289 290 291 292 293 295 295 297 299 302 301 301 299 299 297 294 293 289 286 287 285 287 291 290 289 293 293 297 297 297 297 298 299 298 294 292 294 293 290 291 291 296 307 311 314 315 318 314 321 307 303 322 325 324 325 323 327
312 312 312 312 312 312 313 313 312 312 312 309 306 305 304 309 306 304 299 297 294 288 296 297 296 295 293 292 293 292 292 290 291 288 288 291 293 295 298 300 301 299 299 295 293 292 290 289 289 288 290 291 288 287 292 292 290 293 296 296 295 294 294 295 292 292 293 293 291 290 295 296 306 312 313 316 318 315 315 298 300 319 324 322 326 324 327
312 311 312 312 313 313 313 313 313 312 311 310 307 305 304 309 308 307 301 297 292 291 296 298 295 293 292 292 291 294 295 294 293 294 291 292 294 295 296 296 295 299 300 293 294 291 289 289 285 286 285 292 293 293 286 291 289 291 292 293 291 291 292 293 290 291 292 291 292 295 297 303 307 310 315 316 315 313 302 295 313 318 323 324 326 325 327
311 312 312 313 313 313 313 313 313 312 312 311 309 306 305 309 308 307 302 298 294 289 297 300 300 297 298 299 296 296 296 294 293 289 289 290 293 296 295 297 297 293 298 294 295 291 288 288 292 287 286 289 291 287 293 289 289 296 294 292 292 293 293 293 293 291 290 292 290 291 297 304 307 308 308 313 306 299 299 314 319 323 322 327 326 326 328
312 312 312 313 313 313 313 313 312 312 312 312 309 303 306 309 309 307 300 295 297 293 297 298 298 296 299 296 293 293 294 294 295 291 289 286 295 296 293 290 298 298 296 298 289 291 287 284 287 290 286 289 291 294 290 292 295 292 292 295 291 293 291 289 289 293 293 293 290 288 284 301 309 311 307 312 301 304 318 320 325 323 327 325 327 328 329
312 312 312 313 313 313 313 313 312 312 312 312 310 305 303 309 308 308 307 303 298 293 295 301 301 300 300 298 299 298 295 292 293 291 293 292 296 293 285 287 292 293 291 294 287 289 290 285 287 287 290 289 291 293 288 291 291 298 296 293 293 298 292 292 293 296 289 289 288 288 298 307 312 312 306 316 315 320 323 323 316 325 325 327 328 329 329
312 312 312 313 313 313 313 313 313 312 312 312 311 308 301 307 308 309 308 306 299 295 297 302 303 302 303 304 303 302 300 299 299 299 294 292 296 293 294 295 294 294 295 297 294 293 294 292 293 288 286 289 295 288 294 289 286 294 298 298 289 299 296 295 291 298 294 293 295 303 306 309 311 312 315 319 320 323 324 324 324 324 325 327 326 327 329
312 312 312 312 313 312 313 313 313 312 312 313 311 308 302 305 306 309 307 299 302 303 303 301 303 303 304 305 307 306 305 306 304 302 301 295 293 296 294 293 294 298 299 299 294 294 294 294 289 293 290 292 289 289 293 291 288 292 291 297 297 300 299 301 298 297 303 304 304 306 306 307 309 313 316 315 317 322 323 323 323 325 327 327 326 327 327
312 312 312 312 312 313 313 313 313 312 312 312 312 308 306 307 307 306 303 301 298 294 297 300 297 296 298 298 303 306 306 305 305 306 306 302 292 293 298 299 300 298 299 301 303 296 296 295 294 296 287 293 294 288 286 286 290 293 294 293 296 299 299 297 293 300 295 291 304 304 305 308 310 311 313 315 317 321 323 322 324 326 327 328 328 328 327
311 311 311 312 312 312 313 312 313 312 312 312 312 312 311 307 307 306 299 293 294 292 287 293 296 300 303 305 306 304 305 306 307 306 305 304 301 296 295 300 302 297 298 301 304 301 300 293 294 293 287 294 296 287 295 289 290 297 290 293 295 295 303 296 296 296 293 294 301 303 306 307 309 309 309 310 316 319 320 321 323 325 327 328 328 328 326
310 311 311 311 312 312 312 312 312 312 312 312 312 309 306 305 308 309 306 304 302 297 288 288 294 304 305 302 301 303 307 306 306 305 305 305 304 304 301 302 302 304 302 301 299 296 295 294 295 295 290 292 299 292 291 296 294 297 293 292 297 298 300 293 297 294 297 301 302 303 304 305 305 307 309 311 315 317 317 319 322 324 325 327 329 329 327
310 311 311 311 311 312 312 311 312 311 311 311 311 311 308 308 309 306 302 301 295 289 291 287 293 298 301 300 304 306 306 306 305 305 304 305 304 304 303 301 299 300 299 298 299 297 297 294 293 291 294 294 297 295 297 295 294 293 293 296 301 298 293 298 296 293 293 294 299 305 298 299 305 309 315 314 315 315 314 317 320 322 324 326 328 328 328
310 311 311 311 311 312 311 311 311 311 310 311 311 311 311 308 308 310 311 307 299 292 292 291 293 297 303 300 305 306 306 307 306 305 304 303 304 303 302 300 300 297 297 295 293 294 293 291 291 297 297 298 295 293 298 298 298 295 295 296 300 295 297 297 293 293 293 300 304 307 306 304 305 307 310 312 313 314 314 315 317 321 323 325 327 328 327
310 311 311 311 311 311 311 311 311 311 311 310 311 309 308 310 312 312 311 311 308 300 296 296 298 297 292 298 305 304 306 306 306 305 304 304 304 303 302 301 299 299 298 297 296 295 294 294 298 295 294 302 297 293 295 289 290 288 294 300 300 302 303 301 300 300 300 302 303 305 302 300 304 308 310 311 313 313 313 314 316 321 323 324 326 328 326
310 311 311 311 310 310 310 311 311 311 311 312 309 304 300 302 310 309 311 310 308 304 293 291 289 295 304 302 301 303 303 304 304 304 303 303 303 303 303 301 300 300 299 296 296 292 295 295 297 299 300 304 297 296 292 292 290 291 297 299 301 303 304 303 303 301 299 305 306 305 305 306 308 309 310 311 313 313 312 314 317 321 323 325 325 325 328
310 310 310 310 310 310 310 310 311 310 309 309 306 297 293 291 303 312 310 310 310 302 297 296 292 298 298 303 303 302 303 304 304 303 303 303 303 303 303 303 301 301 296 296 296 295 297 293 295 297 301 301 299 295 292 291 290 292 296 298 300 302 302 302 304 304 304 303 304 305 305 306 308 309 309 310 311 312 313 315 319 323 323 326 326 326 327
310 310 310 310 310 310 310 310 311 310 311 307 303 301 302 304 309 313 312 310 309 301 296 291 291 293 294 298 303 306 304 304 304 304 304 304 301 303 303 302 300 302 300 297 297 296 295 297 295 296 296 300 300 295 294 292 290 292 299 300 302 302 303 303 304 305 305 306 304 302 302 304 307 305 305 311 313 315 317 319 321 325 324 324 326 327 327
310 309 309 309 310 310 311 310 311 311 310 309 307 307 307 307 308 310 310 311 306 300 300 293 289 293 293 296 302 304 304 305 305 305 301 305 303 304 300 303 302 301 304 298 295 294 299 298 298 295 298 302 297 295 292 291 293 298 300 302 303 304 304 305 305 305 305 306 304 299 299 302 306 310 311 311 312 313 316 319 322 325 325 323 323 323 325
309 309 309 309 310 310 310 310 310 309 309 309 305 308 310 308 309 308 310 309 303 302 300 293 289 291 291 301 295 301 306 300 299 302 298 307 308 304 301 301 301 297 300 296 298 298 299 299 296 297 299 298 299 294 289 293 298 299 300 301 303 304 305 305 305 305 306 306 307 306 306 307 309 311 312 314 317 319 320 320 321 322 323 321 323 322 323
309 309 309 310 310 310 311 311 312 311 306 307 308 310 311 308 309 309 309 306 296 293 293 293 294 288 290 293 293 298 305 301 298 301 298 302 306 302 303 297 299 295 298 302 298 296 295 296 299 295 291 299 295 289 292 294 296 298 299 300 301 304 305 303 304 306 307 308 308 307 308 309 308 309 310 313 316 319 319 319 320 321 321 322 322 322 322
309 309 310 310 311 311 313 313 313 309 306 305 305 310 311 310 310 310 310 309 303 294 292 292 292 289 290 286 289 297 305 300 303 303 304 303 302 306 304 301 293 297 303 297 294 297 294 303 298 290 299 292 290 294 297 299 299 300 301 301 303 303 303 303 305 307 308 308 309 309 310 310 309 309 312 315 317 318 318 317 319 321 320 322 321 322 321
309 310 310 310 311 311 309 307 310 309 307 310 311 313 312 310 309 308 307 305 306 306 296 292 289 290 292 292 295 299 300 293 302 299 302 300 298 302 301 297 293 300 298 296 296 293 298 308 297 290 290 288 292 297 299 299 299 299 300 302 304 304 305 306 307 308 307 307 308 308 309 310 312 313 314 314 315 316 315 315 317 318 319 319 319 319 319
309 310 313 312 312 309 308 309 309 312 312 311 311 308 306 306 298 298 299 297 302 302 297 295 289 293 297 293 291 301 298 296 300 295 297 303 298 297 303 297 296 297 288 291 295 301 300 297 292 288 290 296 297 300 301 303 305 306 305 305 305 306 306 308 310 309 307 307 307 307 309 311 312 314 312 312 314 313 314 316 318 321 322 321 319 319 318
309 317 317 316 314 306 305 308 314 311 311 313 311 304 300 302 298 293 294 297 298 294 298 294 290 295 293 292 294 302 298 294 293 296 291 301 296 291 299 289 298 297 289 289 293 302 289 290 289 289 287 292 294 298 302 304 305 306 308 310 311 311 312 312 313 312 310 310 313 316 315 311 310 312 314 314 315 315 316 317 318 321 320 319 319 320 319
318 314 312 314 310 309 312 313 311 311 311 306 307 304 297 299 295 289 298 291 290 295 296 290 298 297 297 294 294 295 305 297 291 290 293 294 306 291 296 295 296 292 285 286 291 300 288 286 289 288 287 292 294 299 301 302 303 305 307 310 311 312 314 314 314 318 317 316 319 317 318 317 316 315 315 315 315 315 316 318 321 321 321 320 319 319 320
314 314 315 309 309 310 310 311 312 311 309 306 305 304 301 292 298 298 295 290 290 295 299 297 298 296 299 299 298 292 306 305 303 304 299 291 305 301 294 288 298 289 287 287 297 297 290 288 288 287 287 294 296 299 301 302 303 305 307 309 310 311 313 315 317 318 318 319 319 319 318 319 320 319 318 318 317 317 317 318 320 320 321 321 320 321 321
312 310 311 312 311 309 309 309 311 311 310 309 299 292 297 298 302 299 298 291 293 298 298 298 297 299 298 300 299 300 301 307 304 302 298 293 300 296 292 294 294 288 286 294 299 295 291 286 287 286 292 296 298 300 300 301 303 304 305 308 309 310 311 311 312 315 318 318 318 319 320 320 319 320 321 320 320 319 319 320 320 321 321 324 324 322 323
307 308 309 310 311 310 310 302 305 307 292 292 291 289 296 292 296 295 298 303 307 301 302 305 302 306 307 307 304 304 303 308 302 301 300 295 303 300 294 291 291 287 292 301 295 289 287 286 285 288 295 297 298 299 300 301 302 304 305 307 308 309 309 309 309 311 312 313 316 318 319 320 321 322 321 322 320 319 320 323 323 322 322 321 320 321 322
312 312 313 316 306 306 310 290 303 302 291 293 290 287 292 292 296 299 297 297 301 302 306 303 305 305 302 307 304 304 305 305 305 302 300 302 299 295 293 289 291 299 304 295 291 287 286 287 289 293 297 299 300 300 300 301 302 303 304 306 307 308 308 309 309 309 310 311 312 313 313 314 315 316 317 317 317 317 317 319 323 322 320 320 318 318 319
313 307 304 302 297 301 297 289 301 293 288 291 294 293 294 291 295 298 297 304 305 301 307 307 307 306 303 308 309 308 306 303 308 301 297 301 298 299 293 291 299 301 293 287 289 289 288 286 293 296 297 297 299 301 301 301 302 302 303 305 306 306 306 306 307 308 308 308 309 310 310 310 311 311 312 313 313 314 314 314 315 316 317 318 318 318 318
307 300 299 294 290 296 296 291 292 290 298 300 298 299 299 300 301 301 306 309 305 305 304 306 307 307 304 309 304 301 307 306 303 302 304 304 296 293 299 305 302 293 291 289 286 284 284 289 294 295 298 299 300 301 302 302 303 304 303 302 304 305 306 306 306 307 308 308 308 308 308 309 309 310 310 311 311 312 311 311 312 312 313 313 313 314 315
304 308 302 298 293 297 304 293 296 299 300 302 303 303 303 303 306 307 309 311 308 309 310 310 309 308 304 303 306 305 306 307 301 302 304 297 296 300 306 297 287 288 285 284 285 286 288 293 297 299 300 300 301 301 302 302 303 303 303 303 305 305 306 306 307 306 308 308 308 308 308 308 308 308 309 309 309 310 311 310 310 310 310 309 310 311 311
297 305 303 292 291 297 296 300 305 305 306 305 306 307 307 308 306 303 306 310 311 313 309 307 304 306 306 309 310 301 303 303 299 299 302 299 301 296 291 292 288 289 289 287 287 292 294 298 300 300 302 303 302 302 302 302 303 303 304 304 304 305 305 306 307 307 308 308 308 308 308 309 308 308 307 307 308 309 309 309 310 310 309 309 310 310 310
309 299 297 296 302 302 302 304 304 301 303 305 306 306 306 305 304 305 307 310 310 310 311 308 305 306 300 304 300 299 296 302 295 292 300 296 291 286 287 284 285 285 290 293 292 295 297 301 303 303 304 303 303 303 304 303 303 303 303 304 305 306 307 306 307 307 308 308 308 308 307 308 308 308 308 308 307 307 309 309 309 309 309 309 309 310 310
300 299 304 300 301 302 305 305 303 299 302 303 304 303 305 305 305 306 310 309 311 311 310 313 312 303 299 301 293 294 295 300 298 296 294 291 291 292 290 285 286 286 290 296 297 299 301 302 304 303 304 304 305 304 304 304 305 305 304 305 306 306 306 307 307 308 308 308 309 308 309 309 308 307 306 306 307 308 308 308 308 308 308 309 309 309 309
308 301 302 308 302 300 303 297 297 298 299 300 302 303 304 303 305 305 310 310 309 307 305 302 302 300 296 293 292 289 291 302 297 294 293 293 296 293 287 286 290 295 298 301 302 304 304 304 304 303 304 304 305 305 305 305 305 305 305 306 306 307 307 307 307 307 307 308 308 309 308 308 309 309 309 308 307 307 306 307 308 308 308 309 309 309 308
300 298 300 304 306 305 305 304 304 303 302 303 304 305 306 303 306 308 311 309 307 302 299 303 302 297 292 291 295 300 302 297 293 295 292 295 298 293 292 294 296 298 300 301 303 304 304 305 306 305 305 304 305 306 306 306 306 306 306 306 306 307 307 307 307 307 306 307 307 307 307 309 310 309 309 308 307 306 304 304 306 306 306 306 307 307 307
Wind_Speed
20 20 21 20 16 15 16 16 15 15 17 12 12 11 8 8 8 10 11 13 15 10 4 5 6 6 8 10 8 9 8 9 10 11 10 11 8 9 9 10 11 11 10 9 10 9 8 3 6 5 5 8 9 9 11 12 6 6 3 2 3 5 6 9 11 8 8 11 12 18 19 20 20 19 18 17 18 17 12 10 6 9 10 11 9 10 5
19 20 20 17 15 14 15 15 14 14 13 11 10 10 9 9 9 7 6 8 12 7 8 8 8 7 10 11 10 7 8 9 12 10 10 6 8 8 9 9 7 11 9 8 10 4 7 6 5 4 1 4 7 9 11 13 6 8 5 4 5 9 12 11 11 8 6 8 9 13 17 17 15 15 18 19 17 19 16 12 9 11 12 13 10 11 6
19 19 17 15 14 14 14 14 12 12 12 11 9 9 9 9 5 4 8 6 6 8 5 7 8 9 12 13 10 11 6 7 10 11 10 8 8 10 7 9 11 10 9 11 10 8 8 5 4 5 3 5 5 8 10 10 8 9 8 10 5 5 9 15 15 17 16 17 17 18 19 18 13 15 19 22 22 22 17 15 12 11 10 14 11 8 2
19 18 17 15 14 14 13 13 12 11 11 12 8 6 8 8 8 8 7 8 3 5 4 5 8 9 10 11 8 10 9 8 8 12 6 7 12 9 13 11 13 7 12 11 11 10 6 9 1 5 3 3 3 7 7 8 9 13 10 10 5 4 3 9 9 9 12 4 4 8 5 15 17 19 19 20 21 20 18 12 13 13 10 13 12 9 5
18 18 17 14 13 13 12 12 11 10 10 10 7 6 6 6 6 9 9 9 2 9 4 8 9 8 10 8 8 10 11 10 7 10 5 9 11 8 5 10 11 11 11 6 7 8 8 4 3 1 4 3 4 3 5 4 11 13 7 10 5 4 7 5 3 1 3 3 4 6 7 8 19 21 20 18 20 21 20 18 14 8 9 13 10 12 13
19 19 18 16 12 11 11 11 10 9 8 10 6 7 7 6 6 7 4 7 7 10 8 11 11 11 10 7 7 9 11 10 9 8 4 9 8 9 2 9 12 10 11 13 7 3 7 5 6 2 2 6 4 2 4 4 8 10 6 8 6 2 8 4 5 1 2 3 2 3 1 1 1 8 14 21 19 20 23 20 17 14 13 9 7 12 15
18 18 19 17 13 10 10 10 9 9 7 7 5 6 5 4 7 5 6 7 8 9 11 13 11 11 7 6 5 9 10 10 9 7 9 6 4 10 7 11 12 12 10 9 6 6 6 5 3 3 6 5 6 3 4 7 8 7 6 7 6 6 2 3 2 4 2 3 2 2 4 2 6 8 7 9 14 17 17 16 17 20 15 11 12 9 13
19 19 18 17 15 12 9 8 8 8 9 7 6 4 5 5 6 5 8 8 10 9 9 9 9 8 4 6 6 9 9 10 11 9 8 8 4 7 8 12 12 11 9 8 6 9 10 8 6 7 11 6 2 5 3 6 6 7 7 6 6 6 4 3 5 4 5 6 5 3 5 3 7 9 10 11 10 10 12 12 14 14 15 17 16 16 15
18 18 19 18 16 13 10 6 6 6 8 5 5 5 3 4 4 4 7 9 7 9 8 8 8 7 3 5 7 9 9 10 11 11 9 7 5 8 10 11 11 8 8 7 7 7 9 11 10 10 8 7 6 7 2 8 8 7 6 5 6 6 3 1 3 5 7 7 8 5 3 7 9 11 13 13 14 15 12 12 11 13 13 13 13 13 12
17 18 18 18 15 13 11 7 4 2 6 5 4 6 4 5 2 2 4 7 9 10 9 8 7 4 4 7 9 8 10 10 10 9 3 3 3 7 10 10 9 8 7 6 7 10 12 12 13 11 10 10 10 9 10 9 7 7 5 5 5 4 5 3 2 7 7 8 5 4 5 6 12 16 16 16 17 16 13 14 14 14 12 14 16 14 8
18 18 18 18 17 15 14 10 4 5 5 6 5 6 5 3 3 4 3 7 8 7 9 8 7 6 9 8 10 8 9 10 9 8 5 8 9 7 8 9 7 7 7 7 10 12 14 14 13 12 13 13 13 10 10 11 9 7 6 5 4 4 4 5 2 5 6 5 3 2 6 12 12 2 11 18 18 16 17 14 15 15 15 13 12 10 7
18 18 18 18 18 17 15 13 5 8 7 6 5 7 5 2 3 4 4 6 10 9 8 9 9 10 11 11 8 8 9 10 11 8 11 10 10 9 9 7 6 7 6 10 12 12 15 15 15 15 15 14 14 13 13 13 11 8 7 8 6 5 4 6 2 5 6 3 3 6 12 10 6 3 4 2 8 8 11 10 12 13 13 15 16 13 12
19 19 19 19 18 17 16 16 10 8 9 5 5 8 5 2 3 4 5 6 9 9 10 11 11 13 11 9 8 8 10 10 10 10 10 10 8 8 7 6 6 8 9 12 14 13 12 9 8 9 10 10 12 13 15 15 15 14 11 9 8 6 5 5 6 5 6 6 7 10 8 7 2 3 4 4 4 5 5 13 13 15 15 10 10 9 10
20 20 20 20 20 20 19 16 15 9 13 9 6 8 6 5 5 4 3 4 8 8 10 13 12 8 8 9 10 11 11 11 10 9 8 6 8 7 6 6 8 9 9 11 11 9 8 6 5 5 8 8 9 10 13 16 16 14 14 12 10 10 6 5 7 5 8 8 8 11 3 4 5 5 5 4 6 6 7 10 12 6 4 1 5 6 9
21 21 21 21 21 21 20 18 16 12 12 13 7 8 7 6 6 5 3 4 10 11 9 10 9 11 12 12 10 10 9 8 9 6 7 7 5 2 7 8 7 8 10 9 7 4 6 7 5 4 6 8 7 8 9 9 11 16 15 13 11 9 9 4 7 6 8 8 8 8 9 11 8 4 8 4 5 3 2 5 3 7 4 2 2 5 5
22 22 22 22 23 21 20 20 18 15 11 14 9 8 8 8 7 6 6 5 4 9 4 3 7 11 11 11 11 11 10 9 8 8 7 2 4 7 5 4 7 9 8 8 5 6 5 6 6 6 6 6 6 5 5 6 7 12 14 13 13 12 10 9 8 8 8 10 10 9 9 5 6 7 7 7 2 2 3 2 9 7 4 3 1 4 4
23 23 24 24 23 22 21 19 19 16 11 15 9 9 8 8 8 7 6 5 5 11 11 15 13 11 10 9 8 7 7 8 7 7 5 5 7 9 6 6 8 7 5 6 4 4 5 5 7 6 5 4 2 5 8 5 6 8 9 13 15 12 10 9 10 11 9 9 10 11 6 5 6 6 5 6 3 2 5 7 6 9 4 3 2 4 5
24 26 25 24 23 23 21 20 20 18 14 14 10 7 7 8 9 6 6 7 8 11 10 10 8 7 7 7 9 9 8 7 8 7 8 7 8 5 7 7 6 4 4 7 4 4 5 5 3 5 4 0 3 6 6 5 9 5 6 10 10 11 10 10 12 10 10 11 9 7 6 4 1 5 5 5 2 1 6 6 5 4 2 1 2 5 5
26 25 25 24 23 22 22 22 19 19 16 11 10 9 9 8 8 8 4 5 6 8 5 6 9 12 11 9 10 9 8 9 8 8 8 7 1 6 11 7 5 4 3 4 4 4 5 2 3 3 5 2 2 3 5 5 4 6 4 5 8 11 8 9 10 11 11 11 12 10 7 2 2 8 10 3 4 6 5 4 3 2 3 1 4 4 4
25 25 24 24 24 23 22 22 21 19 16 14 7 8 6 10 10 12 10 9 6 11 10 11 10 14 10 11 10 9 8 9 8 8 7 8 7 12 9 4 3 6 5 2 4 1 2 2 3 2 2 4 1 5 6 7 2 3 4 2 6 7 10 11 11 9 9 10 10 8 9 5 7 7 3 4 9 4 6 3 2 2 3 4 3 3 3
26 25 25 24 24 24 23 22 21 19 17 18 9 6 6 7 10 11 9 7 6 9 10 6 8 10 10 12 12 13 12 12 10 9 8 9 8 7 5 5 6 5 3 4 4 3 2 1 2 2 2 2 5 5 3 3 5 7 5 4 6 1 7 7 10 9 11 10 11 6 1 8 7 7 4 6 8 9 8 8 6 1 4 4 4 3 4
26 26 25 24 24 24 23 21 21 20 18 17 14 5 8 8 10 10 9 7 8 11 10 10 10 13 15 15 15 14 15 15 14 12 11 10 8 8 9 9 7 4 2 4 4 1 1 2 1 2 4 4 2 5 7 6 4 5 2 4 8 2 2 5 4 5 4 5 5 7 14 11 7 7 7 10 12 10 9 7 7 7 3 3 5 4 5
26 26 25 24 23 23 21 20 21 20 18 16 12 5 7 6 8 10 8 8 6 6 7 10 10 13 15 16 14 13 12 12 12 12 12 10 10 8 8 7 6 3 4 3 5 5 5 5 4 4 5 2 4 7 6 5 5 1 4 5 5 7 2 3 5 6 7 13 14 13 13 14 11 9 8 10 13 12 10 9 8 4 6 5 5 5 6
25 25 26 27 23 22 22 20 20 21 20 17 10 7 4 7 7 7 7 7 7 5 7 9 9 6 5 6 3 5 8 9 11 10 8 10 10 8 6 7 5 4 4 4 4 6 5 4 4 2 5 4 4 6 6 4 4 4 6 6 5 7 3 4 4 7 6 6 2 10 12 14 13 12 12 10 9 9 9 9 8 7 7 6 4 4 4
27 26 26 24 24 23 21 22 20 20 17 18 13 7 4 4 7 9 8 6 4 4 5 2 7 10 10 5 3 5 6 5 6 9 10 11 13 11 6 2 2 5 5 4 4 5 4 5 4 4 7 4 3 6 4 6 3 1 6 5 5 3 6 5 9 10 10 11 12 15 16 15 16 13 11 10 11 12 12 10 9 9 7 7 4 2 1
28 27 26 25 23 23 23 21 21 17 16 16 12 3 5 5 9 9 7 4 2 1 4 6 3 1 6 10 10 9 9 9 10 11 12 13 14 14 13 11 9 6 7 6 6 6 6 7 6 7 6 6 4 7 6 6 9 9 10 11 8 8 7 8 5 8 10 13 14 15 16 17 18 17 14 8 6 10 13 13 13 10 9 7 3 0 2
27 28 27 25 24 22 22 23 20 16 14 13 8 3 6 4 8 10 8 5 4 2 5 7 6 7 8 13 14 12 11 10 10 11 12 13 14 13 13 12 12 9 9 8 7 7 6 8 8 10 8 8 5 8 9 10 9 9 10 11 9 8 10 9 9 11 12 11 9 6 9 9 8 7 4 8 10 11 13 14 14 12 10 9 6 2 2
27 27 26 25 23 23 22 22 21 18 14 10 5 2 4 5 8 9 6 6 8 3 2 5 6 7 11 18 14 6 4 7 9 10 10 10 12 12 13 13 12 10 9 8 8 7 8 9 10 8 8 8 8 9 8 9 9 10 12 12 8 10 10 9 11 10 11 10 10 7 9 12 14 14 13 12 12 12 13 13 13 13 10 10 8 3 4
27 27 27 26 25 23 22 22 19 15 10 6 1 4 4 4 5 7 8 5 4 4 5 8 9 9 7 3 5 8 7 7 8 8 9 10 12 12 12 12 12 10 9 9 9 8 9 10 9 8 7 3 4 8 7 8 10 13 12 9 9 10 11 12 14 16 18 18 17 15 14 16 17 16 15 14 13 12 15 14 14 13 9 7 6 4 3
28 27 24 24 24 25 24 21 17 10 4 3 3 2 1 1 6 7 7 8 6 3 3 4 5 3 6 7 7 5 5 6 8 9 10 9 9 9 10 10 10 10 9 8 7 9 8 9 9 10 11 6 6 5 8 9 11 12 11 13 14 13 12 12 12 14 14 12 13 13 14 17 17 17 16 15 15 14 14 14 14 13 10 10 5 2 1
26 26 26 25 24 24 22 19 11 1 5 4 2 2 2 1 2 6 10 9 6 5 2 3 7 8 9 4 7 7 6 6 7 7 8 9 8 9 8 8 9 8 9 9 8 10 8 9 8 9 8 9 7 6 10 11 14 13 13 12 11 12 12 13 13 14 15 14 15 16 16 17 17 16 19 18 18 16 15 14 14 13 11 8 4 5 1
26 24 24 22 23 22 18 10 5 4 5 6 3 1 1 2 3 4 9 8 7 3 3 4 5 4 4 3 2 5 7 6 6 5 5 5 7 7 9 10 9 9 9 9 8 6 9 10 11 11 10 7 7 9 10 13 16 18 18 12 10 12 13 14 14 15 16 15 16 17 19 20 18 18 15 13 12 12 14 15 14 10 8 7 4 3 4
25 22 22 22 22 18 9 3 5 5 5 7 8 5 6 6 9 9 10 8 5 2 0 2 4 4 4 4 7 3 2 4 4 4 5 7 6 6 8 8 9 9 8 8 5 5 5 8 8 11 11 8 8 7 11 15 18 21 20 16 15 14 15 15 17 17 18 18 17 18 19 18 15 15 16 17 17 16 15 14 12 9 9 10 7 6 3
23 21 20 19 15 5 4 7 10 12 8 4 2 2 4 6 9 9 10 5 3 2 1 2 3 4 5 5 6 4 2 5 3 2 4 4 4 6 5 6 7 7 7 10 8 8 8 8 9 10 7 5 5 5 12 18 21 21 20 20 18 17 14 13 13 15 17 18 18 20 21 20 17 16 15 14 14 13 12 10 11 12 12 10 6 6 6
22 20 17 11 2 4 11 12 7 2 3 2 3 3 7 11 10 11 8 2 3 2 2 2 2 4 5 4 3 2 4 6 5 3 4 1 2 5 2 4 5 6 4 7 7 8 8 8 7 7 9 6 6 9 12 15 17 17 16 16 15 13 12 12 13 15 17 17 18 18 19 18 18 18 17 16 13 11 11 10 11 13 12 10 7 7 6
21 17 12 1 6 7 5 5 3 2 3 4 3 1 10 12 13 8 3 3 2 2 1 1 2 3 4 4 5 3 5 7 4 4 3 3 3 3 4 1 4 6 1 4 5 5 7 1 1 7 4 5 8 9 13 17 22 23 22 21 19 16 15 14 14 14 13 13 15 15 16 17 19 19 17 15 14 12 11 10 13 13 13 9 9 6 5
19 13 3 8 4 4 2 4 2 5 5 6 8 13 15 11 7 4 2 2 0 1 1 2 3 5 3 5 4 3 5 6 5 6 2 2 4 0 3 2 4 1 0 4 5 5 5 0 5 8 4 5 10 14 19 22 23 23 22 19 14 16 15 14 18 17 16 16 18 16 15 16 17 15 14 12 12 11 12 15 14 15 14 11 8 7 6
16 9 6 4 3 2 4 5 5 4 0 7 11 8 6 4 3 3 3 3 2 3 3 3 4 4 3 4 4 3 4 3 5 5 4 3 4 4 2 2 2 2 3 2 2 3 4 3 3 3 5 7 13 14 17 16 14 10 11 13 14 16 16 16 18 16 16 16 14 15 14 14 14 14 14 11 10 10 9 9 10 10 9 9 8 8 8
11 3 3 3 2 5 4 4 4 5 3 6 5 2 3 1 2 2 1 2 1 2 2 3 3 3 4 5 6 3 2 5 6 3 3 3 4 3 2 3 2 2 2 2 2 4 4 2 2 2 4 9 12 18 19 17 16 15 12 8 9 9 8 10 9 15 14 11 10 13 14 14 15 15 11 9 9 9 7 7 9 8 8 8 8 9 9
2 2 3 3 5 4 2 2 1 2 3 3 2 1 2 1 1 1 1 1 1 2 2 2 2 4 5 5 6 4 2 2 2 3 3 6 1 2 3 3 3 3 3 2 2 3 3 4 2 3 6 11 13 18 17 18 17 18 14 13 14 13 10 9 7 8 11 9 6 11 12 9 8 11 10 10 10 9 9 7 8 8 8 7 6 7 9
4 2 2 3 3 2 2 3 1 3 2 1 1 2 0 0 1 0 1 2 1 1 2 3 2 4 5 5 4 4 1 2 3 3 2 4 1 2 2 2 2 2 2 2 3 2 3 2 3 7 10 14 14 17 18 20 20 19 18 16 17 15 13 10 2 3 5 4 6 9 12 12 11 10 10 10 9 7 7 10 10 8 7 8 8 8 8
4 3 3 4 4 4 3 3 2 2 0 2 3 2 2 1 2 2 1 2 5 3 2 3 4 4 1 4 3 3 3 2 3 2 2 3 3 3 2 2 2 2 3 2 4 4 3 3 6 7 10 15 16 16 18 17 18 20 21 18 17 17 17 17 15 13 6 6 9 9 9 10 11 9 9 9 6 7 6 6 7 7 6 6 7 7 8
5 3 3 1 2 1 2 2 6 3 2 4 3 3 4 3 4 5 3 1 1 3 2 4 4 4 3 2 3 5 2 1 3 1 2 3 0 1 3 2 2 4 4 4 4 3 5 6 8 9 11 13 15 16 15 16 18 18 19 19 20 21 22 21 18 17 18 16 15 12 9 8 7 6 6 6 6 6 4 6 7 7 8 8 8 8 8
2 2 3 1 0 3 2 4 3 3 3 2 3 5 7 8 10 7 6 6 8 7 8 8 5 5 5 4 2 2 3 4 3 3 2 1 2 3 4 4 4 2 2 2 4 6 5 4 7 10 11 11 12 14 14 14 15 15 19 22 22 23 23 23 22 21 20 18 16 14 14 15 18 16 15 12 9 7 7 7 8 9 12 13 12 11 12
3 2 3 2 4 4 2 3 4 3 4 5 3 4 5 8 9 9 9 6 6 10 10 8 8 7 7 3 3 1 2 3 3 1 5 3 2 1 3 4 3 3 4 4 3 2 1 7 11 12 15 15 13 12 12 13 13 15 15 17 22 23 24 23 21 21 20 18 19 19 18 16 16 14 14 14 14 12 10 12 12 12 14 14 13 13 12
3 2 4 5 6 4 4 2 2 3 4 3 4 5 7 7 7 7 7 7 8 11 11 10 8 6 6 5 4 4 4 3 2 4 3 2 4 6 3 2 1 5 5 5 5 9 10 10 11 12 13 15 15 13 10 9 9 11 13 16 16 18 20 21 21 20 19 18 19 19 17 18 19 18 18 16 14 14 14 17 15 13 16 17 13 13 13
2 3 2 2 4 4 5 4 6 5 5 6 8 8 7 6 4 3 5 6 7 8 8 7 5 4 5 7 3 3 4 4 5 5 3 4 5 2 2 5 5 5 5 9 8 5 6 9 9 10 12 13 13 13 14 15 12 12 12 14 16 17 17 16 17 18 16 17 18 18 19 20 20 18 19 20 18 17 18 20 20 17 18 18 15 14 15
3 2 2 4 5 5 10 9 8 9 10 10 10 9 7 6 5 7 7 5 4 6 7 7 6 6 4 4 4 9 7 6 6 6 5 4 2 4 3 6 6 5 4 5 9 7 7 8 9 10 10 10 10 11 12 13 15 16 15 15 16 17 18 18 17 17 16 15 15 14 12 13 15 16 16 17 17 16 15 16 14 13 15 16 15 16 16
5 2 3 3 4 7 8 8 10 12 11 11 10 10 10 10 9 8 8 7 6 6 4 3 3 4 4 5 6 7 8 8 7 5 5 6 6 5 4 5 5 7 6 5 6 7 9 8 7 8 10 10 11 9 9 10 12 13 14 14 13 13 15 16 17 17 17 15 14 14 15 14 12 13 13 13 12 13 14 15 15 14 13 13 13 14 14
4 3 5 5 6 8 8 7 9 11 11 11 11 12 11 11 10 9 9 9 8 5 1 2 1 3 4 4 3 5 6 6 7 3 8 11 7 5 3 6 6 4 5 6 6 7 7 7 8 10 11 11 12 11 11 12 13 13 13 14 14 14 16 17 16 15 15 15 16 17 15 13 13 12 12 12 10 11 12 12 10 10 11 11 11 12 13
3 3 6 8 8 7 8 11 12 12 11 12 11 11 11 11 11 10 11 8 7 5 6 7 6 4 3 3 2 3 4 4 5 10 7 7 4 4 3 3 3 4 4 5 5 5 6 7 8 9 10 11 11 11 12 12 12 12 13 13 14 14 14 16 17 16 16 15 15 16 16 13 11 10 9 9 11 13 14 14 11 10 10 11 11 11 12
3 4 8 9 8 8 8 7 8 9 10 10 10 10 10 11 11 10 10 8 8 10 10 7 5 5 5 7 5 3 1 3 6 7 9 7 5 6 6 3 4 4 5 7 7 7 7 8 8 9 9 10 11 11 12 12 13 13 13 14 13 13 15 15 14 14 14 14 15 14 13 13 13 12 12 13 14 13 13 11 10 10 10 10 10 11 12
Wind_Direction
347 349 350 346 342 346 344 345 344 345 341 348 355 335 334 347 323 327 336 337 327 318 352 3 350 358 1 333 313 332 327 325 328 325 340 324 301 281 259 270 278 267 271 273 274 260 266 314 276 82 94 60 27 11 359 343 351 282 81 339 62 249 218 206 226 196 202 210 177 192 205 198 204 208 209 200 207 203 209 218 203 213 209 216 219 237 234
346 348 349 343 344 344 343 343 346 345 355 350 341 346 348 330 315 321 347 339 330 333 12 352 349 349 338 337 339 352 340 339 337 341 341 345 325 315 301 284 276 292 296 278 263 260 257 160 284 181 14 83 18 14 5 352 33 347 54 295 70 206 206 224 198 206 172 185 181 201 206 212 213 206 205 211 209 208 215 224 230 236 219 219 211 227 222
344 347 346 343 345 344 342 344 342 343 343 340 342 345 331 320 300 335 348 354 346 14 14 350 341 346 342 334 343 356 342 18 345 339 333 349 330 327 319 315 317 286 279 263 256 247 267 294 78 342 48 65 21 26 8 3 28 13 4 329 302 267 199 198 209 198 193 188 191 195 194 204 205 217 203 209 211 206 206 214 213 231 216 223 225 222 109
342 343 345 344 345 344 345 345 342 338 343 332 345 343 332 1 339 354 340 347 335 17 3 348 343 338 346 331 349 338 335 356 354 342 334 17 347 335 318 344 326 323 320 247 232 247 234 277 317 255 173 44 66 16 8 15 16 356 336 336 284 238 269 221 237 245 227 218 48 28 301 190 207 200 213 203 209 210 213 221 221 216 213 231 227 239 160
341 340 341 342 344 344 344 344 340 336 338 337 332 301 348 319 349 349 341 327 5 348 339 348 343 338 337 314 346 330 341 344 340 10 316 13 354 326 325 351 2 353 342 333 272 238 246 223 254 286 322 15 4 52 9 25 19 337 338 358 296 231 202 204 267 275 13 11 344 17 348 214 198 203 204 214 206 207 214 214 220 205 219 231 218 211 236
340 338 337 340 340 346 342 341 338 334 336 321 310 341 1 342 1 341 1 307 321 334 334 339 327 323 321 326 329 325 336 342 349 346 27 348 19 351 346 357 359 358 346 323 267 234 254 258 246 273 9 329 356 187 97 20 28 342 16 3 1 312 220 145 254 219 352 322 346 352 295 287 346 219 203 204 210 210 216 221 226 221 223 237 198 214 223
336 336 334 335 338 338 342 338 338 326 318 311 325 350 355 343 328 331 350 308 326 310 309 311 313 313 336 313 314 334 337 342 1 344 314 327 359 14 337 350 351 344 341 338 324 355 253 187 37 340 351 334 335 257 169 112 19 2 5 8 9 305 184 37 253 296 264 219 225 216 209 192 218 222 221 218 214 218 225 231 230 230 235 241 250 238 235
332 331 332 331 333 335 331 336 332 325 309 290 320 5 330 357 340 331 328 305 299 302 309 310 310 312 335 293 19 340 334 337 349 332 322 306 348 6 348 342 342 334 334 328 330 352 354 358 326 345 346 299 19 319 352 341 11 357 3 350 20 314 83 355 332 266 220 210 210 178 226 225 239 233 236 230 230 232 228 233 234 245 247 241 239 244 249
326 325 325 326 327 328 329 323 332 312 302 329 342 335 350 319 322 318 311 310 314 312 305 310 319 305 329 326 350 332 337 334 341 325 358 1 12 349 339 331 325 316 314 312 305 319 323 318 312 314 312 299 346 328 327 356 333 350 340 9 334 314 347 317 275 245 211 183 207 200 239 248 247 241 231 226 222 224 216 222 221 226 230 243 249 249 243
320 319 319 320 319 317 319 320 307 286 263 297 317 320 349 316 312 294 305 289 309 303 311 306 301 298 357 326 330 319 323 317 331 326 87 179 236 320 316 321 310 304 304 307 310 314 307 300 299 297 288 284 286 278 286 303 311 318 314 330 305 331 329 286 226 220 210 144 191 221 251 260 246 230 224 222 223 229 228 227 224 226 228 233 234 241 251
313 313 312 315 315 312 310 312 291 205 250 302 309 301 320 341 316 317 267 288 299 303 310 308 302 329 309 309 309 312 309 320 328 332 326 314 317 315 299 303 310 298 305 311 309 296 287 287 284 281 273 271 272 272 274 276 276 286 290 294 283 278 282 278 304 246 208 120 217 275 228 224 236 255 212 214 216 211 220 221 221 221 216 238 247 258 255
308 307 308 309 310 307 303 302 273 205 230 281 280 278 298 301 279 267 276 290 306 312 305 302 312 310 304 308 301 301 304 315 318 308 299 311 313 311 301 295 295 291 324 307 293 293 290 276 257 243 246 256 263 261 258 264 264 247 251 262 278 280 261 251 266 247 246 243 245 217 221 228 77 113 73 133 218 230 237 239 236 233 225 233 242 245 250
302 303 302 302 302 303 302 299 290 219 212 237 246 266 284 242 266 274 284 280 289 304 303 305 307 299 296 297 300 302 309 307 298 299 296 299 307 304 294 306 304 303 310 299 303 302 296 287 277 266 250 237 239 248 248 245 244 242 242 228 242 248 240 250 239 246 269 265 215 216 210 46 169 108 83 88 157 196 228 243 238 241 246 258 261 255 256
299 299 298 297 302 302 301 297 293 238 211 218 240 254 267 247 248 249 235 272 283 288 299 297 291 293 306 308 309 308 305 300 307 297 292 318 306 301 314 314 312 307 302 309 300 312 298 269 269 228 217 218 231 234 232 232 234 233 230 225 223 240 260 254 252 220 243 229 232 234 19 294 210 158 151 163 165 153 213 225 216 190 75 265 258 271 268
297 296 296 296 301 304 299 296 289 274 220 212 238 249 250 226 223 243 236 238 272 290 292 281 307 315 314 311 317 312 305 312 307 312 322 295 271 310 309 308 305 303 299 293 291 268 250 278 271 231 216 206 213 232 204 217 213 221 221 220 219 219 229 203 241 234 232 243 241 237 239 245 225 137 111 90 91 33 26 293 191 113 101 76 245 254 270
295 297 297 300 304 303 300 294 289 280 238 209 221 236 237 230 221 223 236 239 289 291 280 293 306 311 309 306 309 304 303 308 311 310 305 305 303 317 314 314 307 298 279 263 270 290 287 281 268 255 225 216 229 267 176 212 204 188 205 209 212 211 222 251 241 242 216 226 241 233 233 231 68 119 117 94 121 88 134 178 238 110 85 89 302 276 292
296 297 304 307 307 305 301 294 288 282 258 203 218 225 239 204 201 210 221 233 222 248 289 296 300 295 293 292 294 286 309 307 326 317 313 316 326 311 316 332 306 267 286 320 265 268 273 267 259 267 253 9 267 214 240 211 219 150 166 192 204 206 210 213 224 234 232 235 226 232 228 245 160 147 104 104 98 121 217 234 220 113 61 34 330 312 311
303 309 310 310 309 306 302 299 292 286 277 218 208 213 227 194 198 200 227 239 250 272 273 268 274 282 282 319 304 303 301 293 290 292 284 304 303 314 338 315 312 273 266 264 309 286 286 297 355 318 306 15 295 297 249 187 219 175 188 180 183 200 207 211 220 216 222 232 246 255 243 249 159 179 125 105 44 289 216 228 75 158 12 321 322 296 311
310 310 311 310 308 306 304 301 296 292 287 255 209 224 230 202 179 192 228 234 229 253 271 286 281 280 281 286 275 284 284 295 299 292 296 301 12 342 308 292 316 266 216 294 284 292 303 356 38 360 311 11 318 234 321 308 234 114 179 196 201 195 204 210 221 224 221 216 231 236 260 278 314 222 248 193 263 213 237 65 227 193 256 199 270 297 298
310 311 310 308 308 306 306 304 299 297 292 282 206 218 211 188 185 184 201 231 235 256 269 275 276 274 278 272 278 277 282 262 251 265 287 290 324 327 301 204 178 257 254 242 255 249 321 341 21 319 308 321 3 323 293 228 219 255 209 204 229 200 203 203 204 216 227 229 229 224 226 116 359 6 234 221 238 350 19 313 169 255 282 295 291 292 311
309 310 309 309 308 307 306 303 302 300 295 291 259 220 220 186 189 195 201 220 251 274 279 265 260 268 276 275 273 273 271 270 279 283 284 285 308 307 302 18 6 342 339 344 318 25 351 350 26 327 261 308 325 309 296 301 278 218 249 232 240 164 233 216 211 200 220 211 216 209 121 20 5 356 290 17 318 347 340 340 293 62 310 308 308 302 337
309 310 309 309 309 309 306 304 304 303 302 299 286 221 222 188 189 190 195 196 227 238 265 298 301 288 280 275 272 265 265 268 265 263 269 275 274 264 285 301 304 304 332 315 285 213 143 345 256 281 306 304 295 273 322 299 234 115 183 234 227 169 256 19 285 3 304 258 259 349 327 304 326 331 331 340 330 330 347 319 320 314 327 357 289 311 301
309 309 307 310 310 309 306 304 304 304 303 300 295 222 224 169 187 184 164 209 225 262 275 278 273 276 272 264 257 256 257 254 258 252 247 256 265 256 258 263 266 273 279 286 330 327 335 338 307 313 298 283 304 310 293 268 265 294 251 203 253 117 331 334 291 276 299 281 273 280 281 291 301 335 329 330 328 329 328 337 323 337 324 320 315 318 306
308 307 309 311 310 310 309 305 303 304 308 305 294 253 213 184 162 158 189 211 226 262 269 246 262 269 293 300 294 206 223 235 239 247 243 234 247 256 249 248 263 244 254 302 328 315 336 315 299 322 281 286 297 262 287 279 282 304 277 253 249 269 197 187 273 290 293 273 254 264 275 286 306 308 316 311 310 320 334 327 330 323 316 305 303 306 312
310 310 310 310 312 312 309 308 304 309 310 306 306 264 202 156 163 171 176 200 206 214 256 296 254 280 295 309 279 246 241 251 232 226 224 220 229 247 255 36 287 285 295 315 290 274 267 290 283 259 275 280 271 274 264 283 277 359 289 268 278 196 84 261 241 260 255 268 288 297 295 294 292 288 293 307 308 309 316 320 314 315 306 294 305 298 345
312 311 311 311 312 311 311 307 310 310 308 303 299 242 204 190 175 182 191 207 137 154 264 275 264 209 314 297 267 269 277 261 242 232 224 225 227 237 258 274 276 274 286 286 284 274 275 267 271 272 272 280 231 264 277 288 290 291 277 274 273 290 303 274 280 268 270 270 266 269 279 279 275 274 267 281 312 314 322 314 308 307 294 280 243 10 73
311 310 310 312 313 312 313 314 309 308 305 296 295 224 206 173 164 179 194 173 160 253 229 250 274 296 294 284 282 279 261 248 238 235 234 227 233 238 245 253 267 275 271 270 262 264 255 259 260 267 258 267 281 273 282 279 277 280 273 266 254 251 251 259 263 261 257 256 261 275 261 257 255 254 350 341 326 316 312 315 309 303 305 295 268 184 102
311 310 311 314 315 316 316 316 315 315 310 303 287 214 164 162 185 191 186 173 171 248 316 275 278 290 298 280 276 260 224 217 226 229 232 233 228 233 235 238 244 251 250 250 254 243 251 256 258 263 264 268 273 266 255 265 272 267 260 258 253 255 262 267 260 257 258 257 258 268 288 288 284 290 296 305 312 306 305 308 310 300 296 300 288 226 136
311 312 315 317 319 318 317 315 313 312 305 291 249 149 174 194 177 187 191 194 185 218 246 272 290 284 281 349 322 284 255 241 230 231 233 226 226 227 229 233 236 238 245 246 253 266 261 259 268 270 271 343 279 272 278 265 259 259 255 263 259 244 251 255 261 268 268 271 277 279 277 274 281 286 291 291 295 296 292 294 294 294 288 284 279 283 141
312 314 316 319 320 319 316 314 317 317 284 225 132 127 184 190 185 196 191 189 181 200 241 274 286 300 327 301 288 289 268 241 243 241 244 243 236 232 232 231 236 239 244 247 248 252 255 263 263 265 265 242 254 289 268 267 266 265 269 262 254 254 255 261 263 260 267 275 280 278 274 274 276 281 281 280 279 279 281 285 288 285 274 267 262 278 93
314 317 320 321 318 318 316 313 314 275 189 163 159 138 117 72 133 200 189 193 162 175 224 236 262 308 299 267 271 277 290 280 267 258 248 243 242 241 233 229 233 230 233 238 246 251 262 261 269 267 270 255 255 260 268 279 277 276 260 247 242 237 243 247 245 243 254 262 267 269 269 266 266 271 267 264 265 265 268 269 265 259 266 265 200 189 159
316 316 317 318 319 319 316 307 282 213 182 164 171 72 127 49 115 159 174 173 143 179 220 275 292 272 300 264 234 266 269 272 260 247 239 230 236 224 224 219 228 215 228 238 242 255 246 256 257 261 263 250 236 258 265 266 268 265 265 258 236 232 241 251 254 261 264 262 263 266 264 261 255 252 259 260 262 259 256 254 250 238 229 236 200 165 124
316 317 320 322 324 325 329 55 132 170 154 108 96 81 50 72 113 132 152 148 157 163 141 248 265 308 288 341 318 279 268 269 255 237 227 190 240 206 225 215 223 230 213 236 223 242 248 246 245 254 249 244 247 250 252 253 253 259 268 273 271 265 261 262 267 268 267 261 253 253 256 254 255 251 252 257 255 255 260 257 236 218 215 221 180 150 160
317 320 322 326 329 351 72 118 99 92 92 143 202 186 147 133 133 134 142 139 112 108 197 256 287 301 308 314 289 85 347 311 295 251 282 150 196 204 219 214 206 229 202 219 230 247 256 266 260 268 281 232 221 259 258 255 256 265 270 271 270 266 259 254 248 249 251 247 248 247 248 251 255 261 262 259 255 243 243 234 220 214 217 221 188 170 144
318 320 325 329 32 117 118 133 127 153 83 100 67 60 143 158 145 148 146 161 136 148 192 233 264 291 318 331 308 78 2 302 297 327 299 215 197 256 231 229 174 228 204 197 243 244 263 264 294 280 263 263 228 234 248 265 268 266 265 265 259 253 244 242 240 240 249 256 254 246 241 240 243 246 244 245 245 227 219 220 219 216 217 209 185 173 152
318 321 333 341 158 171 175 202 32 128 91 56 43 5 149 148 142 133 62 42 7 141 237 246 241 264 308 315 327 4 349 300 315 307 285 314 251 215 266 298 229 229 341 174 246 241 249 317 286 258 279 269 255 260 281 291 292 289 287 284 285 285 282 272 271 268 268 265 254 247 244 240 233 232 233 232 224 205 206 215 218 216 219 215 191 156 130
317 329 70 163 173 206 68 40 56 38 49 75 81 103 124 124 110 125 25 354 79 316 217 260 260 265 277 301 295 307 333 316 352 310 288 276 321 106 213 215 254 49 302 243 246 255 277 346 246 275 287 270 286 292 285 279 273 273 275 278 282 277 268 269 262 258 264 260 251 245 243 229 215 217 219 208 198 192 198 208 213 212 211 192 178 141 121
318 305 180 175 189 10 44 46 21 31 32 146 148 130 154 176 117 163 185 231 204 191 199 207 250 281 280 266 263 13 334 302 360 322 325 28 331 309 43 345 306 358 288 301 303 1 288 256 246 281 289 279 288 310 336 343 344 311 274 261 262 268 270 261 256 247 232 234 234 223 212 206 206 201 183 171 167 180 196 206 213 213 201 177 158 142 132
290 216 202 243 355 40 11 9 27 341 234 128 204 182 76 36 127 203 210 270 243 242 170 224 264 236 242 254 275 290 284 316 321 310 295 12 353 320 37 349 350 12 270 286 354 17 314 284 282 297 288 314 330 345 338 343 342 346 344 325 294 298 299 305 264 218 213 211 199 181 179 180 183 180 175 150 163 184 195 199 204 200 186 174 150 141 139
36 354 5 18 33 36 29 111 107 215 187 162 162 262 99 179 295 333 160 253 217 206 210 248 237 245 228 255 308 324 126 196 297 316 318 315 358 314 316 320 329 345 312 330 339 51 2 327 311 320 352 351 348 342 341 340 344 352 348 349 342 344 336 315 278 211 208 208 192 166 168 158 171 163 160 163 174 183 184 182 192 183 175 151 137 138 131
23 3 12 27 19 331 304 318 217 185 228 329 157 145 61 51 125 243 259 271 257 293 185 291 231 233 213 229 223 260 112 207 253 248 262 279 303 267 337 353 333 310 321 353 333 11 347 303 337 17 7 350 346 342 344 343 345 353 4 358 1 6 11 8 13 161 190 162 155 160 159 159 155 156 158 165 172 172 171 181 178 170 161 147 151 143 136
357 338 334 303 295 278 254 208 204 286 270 6 346 7 2 309 195 184 213 339 356 336 234 205 292 350 346 193 230 247 248 205 274 259 258 331 19 357 329 304 351 1 23 327 319 332 331 1 12 15 350 349 347 347 347 342 346 358 4 359 9 24 34 32 29 24 38 113 130 137 144 152 154 157 153 157 159 154 182 179 163 154 148 134 138 141 137
262 240 234 264 249 219 272 33 23 358 7 347 2 17 354 9 4 341 9 56 241 296 346 189 253 256 232 205 236 195 284 88 262 291 298 347 94 197 348 350 350 19 344 318 8 339 15 21 18 360 344 356 352 351 348 348 348 354 6 12 17 28 37 40 37 42 42 39 46 55 75 96 101 111 123 125 116 87 61 80 103 119 113 92 68 62 84
140 199 220 185 305 18 343 48 329 24 21 13 358 5 341 5 9 12 13 356 332 345 352 343 335 322 16 152 308 341 214 202 206 242 239 262 339 353 5 21 10 306 227 9 2 23 10 27 0 344 348 349 357 355 354 351 355 359 12 15 21 27 32 38 43 42 43 43 47 46 41 51 57 56 56 56 62 85 102 89 92 109 105 89 79 75 86
311 5 346 8 37 347 19 57 334 26 10 351 346 357 344 357 350 5 5 336 332 339 337 353 349 353 13 13 230 176 282 352 168 311 18 343 358 24 24 8 327 329 8 6 20 4 9 16 348 354 353 356 357 359 356 1 1 8 0 10 21 21 26 31 37 44 42 44 49 54 52 55 59 55 58 51 41 38 60 65 59 78 88 79 73 70 62
46 359 358 35 34 11 44 44 337 17 15 332 1 349 355 1 353 359 2 350 350 353 352 346 349 353 36 26 21 10 356 332 343 31 350 295 22 35 358 239 294 11 22 25 23 28 25 6 357 355 349 353 351 349 358 2 8 16 13 23 18 25 29 29 31 39 41 43 48 51 51 56 55 52 61 57 50 48 51 64 56 51 66 65 57 61 61
78 21 35 42 62 41 44 34 29 36 352 7 17 15 16 6 1 344 345 336 344 339 334 340 343 341 8 11 20 87 26 360 31 4 312 35 24 20 32 27 28 3 15 20 21 15 8 355 356 350 348 351 347 352 360 5 15 26 27 27 28 26 30 33 30 32 30 36 43 48 49 51 52 47 53 57 48 44 42 48 49 43 57 64 58 60 58
57 351 355 44 41 25 34 36 34 43 35 28 24 24 22 18 26 21 2 339 306 320 353 338 350 334 35 10 21 43 27 5 35 35 15 11 343 22 26 42 41 29 22 20 24 4 353 342 344 349 348 348 350 358 3 5 3 7 16 24 25 25 29 33 35 36 35 36 36 39 39 49 62 62 57 55 50 44 50 54 48 47 55 60 58 56 56
58 28 30 58 40 32 30 21 26 36 23 20 18 22 20 25 29 20 2 340 333 341 358 355 345 314 20 341 15 24 33 6 41 24 14 29 36 23 14 34 10 46 15 8 2 348 348 336 335 351 359 4 3 357 351 347 355 359 8 17 23 27 31 31 32 35 39 41 44 47 50 52 55 59 56 54 54 48 42 45 47 44 47 54 60 65 62
41 48 24 29 51 42 22 28 33 38 25 21 16 16 8 19 19 23 0 345 331 326 2 152 247 9 17 349 29 47 49 20 39 32 44 48 38 27 23 49 32 25 353 348 353 345 341 342 359 21 21 19 14 10 6 2 4 9 12 17 23 32 38 35 31 29 33 39 43 46 45 44 46 47 54 60 61 61 54 50 49 55 55 52 54 55 60
44 57 54 25 32 29 13 32 27 29 25 24 19 15 5 17 6 3 350 342 353 30 36 28 25 22 21 15 3 45 27 342 41 45 40 42 29 51 38 49 357 337 344 337 346 353 0 4 17 21 20 19 15 14 16 17 18 18 17 21 22 25 29 35 37 33 30 34 38 44 41 40 40 47 45 53 57 58 60 56 44 45 54 56 53 56 58
39 40 44 44 37 31 30 44 40 35 32 26 23 20 10 18 360 356 346 0 23 33 38 29 29 43 42 41 33 36 17 46 48 41 52 45 0 36 49 10 354 350 338 344 3 15 17 23 18 16 18 18 15 18 23 24 26 26 27 28 27 25 25 26 30 35 35 34 33 36 44 47 46 50 53 54 55 57 57 51 41 45 49 53 56 58 62